Change the Weather History Date:

Thursday, May 2, 2013

  Actual Average Record
Temperature  
Mean Temperature 58 °F 57 °F  
Max Temperature 73 °F 68 °F 89 °F (1899)
Min Temperature 42 °F 46 °F 32 °F (1903)
Degree Days  
Heating Degree Days 7 9  
Month to date heating degree days 16 18  
Since 1 July heating degree days 4861 5216  
Cooling Degree Days 0 1  
Month to date cooling degree days 0 2  
Year to date cooling degree days 15 11  
Growing Degree Days 8 (Base 50)    
Moisture  
Dew Point 42 °F    
Average Humidity 62    
Maximum Humidity 92    
Minimum Humidity 31    
Precipitation  
Precipitation 0.00 in 0.12 in 2.14 in (1897)
Month to date precipitation 0.00 0.23  
Year to date precipitation 9.58 13.01  
Sea Level Pressure  
Sea Level Pressure 30.41 in    
Wind  
Wind Speed 2 mph (East)    
Max Wind Speed 13 mph    
Max Gust Speed 17 mph    
Visibility 10 miles    
Events      
T = Trace of Precipitation, MM = Missing Value Source: NWS Daily Summary

Daily Weather History Graph

Daily Weather History Graph

Search for Another Location

Airport or City:

Trip Planner

Search our weather history database for the weather conditions in past years. The results will help you decide how hot, cold, wet, or windy it might be!

Date:

Astronomy

May. 02, 2013 Rise Set
Actual Time 6:01 AM EDT 8:00 PM EDT
Civil Twilight 5:32 AM EDT 8:30 PM EDT
Nautical Twilight 4:55 AM EDT 9:06 PM EDT
Astronomical Twilight 4:16 AM EDT 9:45 PM EDT
Moon 1:48 AM EDT (5/2) 12:46 PM EDT (5/2)
Length of Visible Light 14h 58m
Length of Day
13h 58m
Waning Gibbous, 48% of the Moon is Illuminated
May 2
Waning Gibbous
May 9
New
May 18
First Quarter
May 25
Full
May 31
Last Quarter

Hourly Weather History & Observations

Time (EDT) Temp. Dew Point Humidity Pressure Visibility Wind Dir Wind Speed Gust Speed Precip Events Conditions
12:54 AM 53.1 °F 41.0 °F 64% 30.44 in 10.0 mi NE 3.5 mph - N/A   Clear
1:54 AM 50.0 °F 41.0 °F 71% 30.43 in 10.0 mi NNE 3.5 mph - N/A   Clear
2:54 AM 48.9 °F 41.0 °F 74% 30.43 in 10.0 mi Calm Calm - N/A   Clear
3:54 AM 46.0 °F 41.0 °F 83% 30.43 in 10.0 mi Calm Calm - N/A   Clear
4:54 AM 45.0 °F 42.1 °F 90% 30.43 in 7.0 mi Calm Calm - N/A   Clear
5:54 AM 43.0 °F 39.9 °F 89% 30.44 in 10.0 mi Calm Calm - N/A   Clear
6:54 AM 44.1 °F 41.0 °F 89% 30.46 in 10.0 mi Calm Calm - N/A   Clear
7:54 AM 48.9 °F 44.1 °F 83% 30.47 in 10.0 mi Calm Calm - N/A   Clear
8:54 AM 53.1 °F 44.1 °F 71% 30.47 in 10.0 mi Calm Calm - N/A   Clear
9:54 AM 59.0 °F 45.0 °F 60% 30.46 in 10.0 mi Calm Calm - N/A   Clear
10:54 AM 63.0 °F 44.1 °F 50% 30.47 in 10.0 mi Calm Calm - N/A   Clear
11:54 AM 64.9 °F 41.0 °F 42% 30.45 in 10.0 mi Variable 3.5 mph - N/A   Clear
12:54 PM 66.9 °F 41.0 °F 39% 30.43 in 10.0 mi Calm Calm - N/A   Clear
1:54 PM 69.1 °F 39.9 °F 35% 30.42 in 10.0 mi Variable 3.5 mph - N/A   Clear
2:54 PM 72.0 °F 42.1 °F 34% 30.40 in 10.0 mi SE 9.2 mph - N/A   Clear
3:54 PM 72.0 °F 42.1 °F 34% 30.38 in 10.0 mi ESE 10.4 mph 16.1 mph N/A   Clear
4:54 PM 72.0 °F 41.0 °F 33% 30.37 in 10.0 mi Variable 6.9 mph - N/A   Clear
5:54 PM 71.1 °F 39.9 °F 32% 30.35 in 10.0 mi East 6.9 mph 17.3 mph N/A   Clear
6:54 PM 71.1 °F 39.9 °F 32% 30.34 in 10.0 mi Variable 4.6 mph - N/A   Clear
7:54 PM 68.0 °F 39.0 °F 35% 30.34 in 10.0 mi Calm Calm - N/A   Clear
8:54 PM 66.0 °F 39.0 °F 37% 30.33 in 10.0 mi Calm Calm - N/A   Clear
9:54 PM 62.1 °F 41.0 °F 46% 30.33 in 10.0 mi Calm Calm - N/A   Clear
10:54 PM 57.9 °F 45.0 °F 62% 30.32 in 10.0 mi Calm Calm - N/A   Clear
11:54 PM 55.0 °F 44.1 °F 67% 30.33 in 10.0 mi Calm Calm - N/A   Clear